Home   Weather   Regensburg   Past weeks

Flag for Germany Past Weather in Regensburg, Bavaria, Germany — Yesterday and Last 2 Weeks

Now
54 °F

Clear.


Feels Like: 54 °F
Forecast: 46 / 71 °F
Wind: No wind

Location: Hohenfels

Current Time: Sep 27, 2016 at 12:41:22 AM

Latest Report: Sep 26, 2016 at 11:58 PM


Visibility: N/A

Pressure: 30.20 "Hg

Humidity: 94%

Dew Point: 52 °F

Location of RegensburgLocation

Past Weather in Regensburg — Graph

°F

Regensburg Temperature Yesterday

Maximum temperature yesterday: 70 °F (at 1:58 PM)
Minimum temperature yesterday: 43 °F (at 3:58 AM)
Average temperature yesterday: 56 °F

High & Low Weather Summary for the Past Weeks

 TemperatureHumidityPressure
High86 °F (Sep 13, 3:58 PM)100% (Sep 12, 3:58 AM)30.40 "Hg (Sep 12, 3:58 AM)
Low39 °F (Sep 22, 5:58 AM)33% (Sep 12, 4:58 PM)29.84 "Hg (Sep 15, 3:58 PM)
Average58 °F81%30.06 "Hg
* Reported Sep 11 10:58 PM — Sep 26 10:58 PM, Regensburg, Weather by CustomWeather, © 2016

Note: Actual official high and low records may vary slightly from our data, if they occured in-between our weather recording intervals... More about our weather records

Advertising

Regensburg Weather History for the Previous 24 Hours

Scroll right to see more
 ConditionsComfort  
Time TempWeatherWind HumidityBarometerVisibility
10:58 PM
Mon, Sep 26
57 °FPassing clouds.2 mph88%30.20 "HgN/A
9:58 PM57 °FPassing clouds.3 mph94%30.20 "HgN/A
8:58 PM59 °FPassing clouds.6 mph88%30.21 "HgN/A
7:58 PM61 °FPartly cloudy.3 mph88%30.19 "HgN/A
6:58 PM63 °FPartly sunny.3 mph83%30.18 "HgN/A
5:58 PM68 °FOvercast.3 mph64%30.16 "HgN/A
4:58 PM70 °FScattered clouds.2 mph57%30.15 "HgN/A
3:58 PM70 °FScattered clouds.5 mph53%30.15 "HgN/A
2:58 PM70 °FSunny.No wind53%30.16 "HgN/A
1:58 PM70 °FSunny.2 mph57%30.17 "HgN/A
12:58 PM66 °FSunny.2 mph64%30.19 "HgN/A
11:58 AM64 °FSunny.2 mph68%30.19 "HgN/A
10:58 AM59 °FSunny.3 mph82%30.19 "HgN/A
9:58 AM54 °FSunny.2 mph94%30.19 "HgN/A
8:58 AM48 °FSunny.1 mph94%30.20 "HgN/A
7:58 AM43 °FSunny.2 mph100%30.19 "HgN/A
6:58 AM43 °FClear.1 mph100%30.18 "HgN/A
5:58 AM43 °FClear.1 mph100%30.17 "HgN/A
4:58 AM43 °FClear.2 mph100%30.17 "HgN/A
3:58 AM43 °FClear.No wind100%30.16 "HgN/A
2:58 AM45 °FClear.2 mph100%30.16 "HgN/A
1:58 AM46 °FClear.No wind93%30.16 "HgN/A
12:58 AM48 °FClear.2 mph94%30.16 "HgN/A
Weather by CustomWeather, © 2016

See weather overviewHow to use our weather pages